Voltar ao catálogo

TDRS 11

AtivoComunicaçõesGEO
NORAD 39070·PAYLOAD·🇺🇸 United States

Lançado Jan 31, 2013 de Cape Canaveral Space Force Station

Loading…

TLE

AtualizadoSource: Space-Track

Época: Sep 14, 2026, 13:18 UTC

1 39070U 13004A   26257.55484890  .00000072  00000-0  00000-0 0  9991
2 39070   3.6567  32.5607 0003572  43.8418 302.5318  1.00268225 47588

Acompanhe TDRS 11 em tempo real com AllMySat

Download on the App Store